Home > Weather > Dublin > Past weeks

Flag for Ireland Weather for the Past 2 Weeks in Dublin, Ireland

Now
36 °F

Scattered clouds.


Feels Like: 28 °F
Forecast: N/A
Wind: 10 mph from North

Location: Dublin Airport

Current Time: Feb 14, 2016 at 6:01:22 PM

Latest Report: Feb 14, 2016 at 5:30 PM


Visibility: N/A

Pressure: 29.86 "Hg

Humidity: 75%

Dew point: 28 °F

Location of DublinLocation

Historic Weather in Dublin — Graph

°F

Dublin Temperature Yesterday

Maximum temperature yesterday: 43 °F (at 12:00 AM)
Minimum temperature yesterday: 39 °F (at 6:30 PM)
Average temperature yesterday: 41 °F

High & Low Weather Summary for the Past Weeks

 TemperatureHumidityPressure
High54 °F (Jan 31, 12:30 PM)100% (Jan 31, 7:00 AM)30.30 "Hg (Jan 31, 7:00 AM)
Low28 °F (Feb 11, 6:30 AM)54% (Feb 1, 1:00 PM)28.56 "Hg (Feb 8, 6:30 AM)
Average42 °F85%29.48 "Hg
* Reported Jan 30 5:00 PM — Feb 14 5:00 PM, Dublin, Weather by CustomWeather, © 2016

Note: Actual official high and low records may vary slightly from our data, if they occured in-between our weather recording intervals... More about our weather records

Advertising

Dublin Weather History for the Previous 24 Hours

 ConditionsComfort  
Time TempWeatherWind HumidityBarometerVisibility
5:00 PM
Sun, Feb 14
37 °FScattered clouds.12 mph70%29.83 "HgN/A
4:30 PM39 °FScattered clouds.16 mph70%29.83 "HgN/A
4:00 PM39 °FBroken clouds.12 mph70%29.80 "HgN/A
3:30 PM39 °FBroken clouds.16 mph65%29.77 "HgN/A
3:00 PM41 °FScattered clouds.18 mph66%29.74 "HgN/A
2:30 PM39 °FPartly sunny.18 mph75%29.74 "HgN/A
2:00 PM41 °FPartly sunny.21 mph66%29.71 "HgN/A
1:30 PM41 °FScattered clouds.17 mph66%29.68 "HgN/A
1:00 PM39 °FScattered showers. Scattered clouds.15 mph75%29.65 "HgN/A
12:30 PM39 °FSprinkles. Broken clouds.17 mph75%29.65 "HgN/A
12:00 PM43 °FBroken clouds.17 mph76%29.62 "HgN/A
11:30 AM43 °FPartly sunny.15 mph71%29.59 "HgN/A
11:00 AM43 °FBroken clouds.18 mph71%29.56 "HgN/A
10:30 AM39 °FPartly sunny.12 mph81%29.56 "HgN/A
10:00 AM39 °FScattered showers. Partly sunny.18 mph81%29.53 "HgN/A
9:30 AM36 °FScattered showers. Broken clouds.9 mph93%29.50 "HgN/A
9:00 AM36 °FSprinkles. Broken clouds.21 mph93%29.50 "Hg3 mi
8:30 AM37 °FSprinkles. Broken clouds.17 mph87%29.45 "HgN/A
7:30 AM37 °FPassing clouds.16 mph87%29.42 "HgN/A
7:00 AM37 °FPartly cloudy.15 mph87%29.39 "HgN/A
6:30 AM36 °FSprinkles. Passing clouds.17 mph93%29.36 "HgN/A
6:00 AM37 °FSprinkles. Partly cloudy.17 mph87%29.36 "Hg6 mi
5:30 AM37 °FSprinkles. Partly cloudy.21 mph93%29.33 "HgN/A
5:00 AM37 °FPartly cloudy.13 mph87%29.30 "HgN/A
4:00 AM39 °FSprinkles. Partly cloudy.21 mph81%29.30 "Hg3 mi
3:00 AM39 °FPassing clouds.15 mph81%29.27 "HgN/A
2:30 AM39 °FPassing clouds.15 mph81%29.27 "HgN/A
2:00 AM39 °FPassing clouds.16 mph75%29.27 "HgN/A
1:30 AM39 °FPassing clouds.14 mph81%29.24 "HgN/A
1:00 AM39 °FPassing clouds.14 mph81%29.24 "HgN/A
12:30 AM39 °FPassing clouds.13 mph81%29.24 "HgN/A
12:00 AM39 °FPartly cloudy.15 mph75%29.24 "HgN/A
11:30 PM
Sat, Feb 13
39 °FPassing clouds.16 mph81%29.21 "HgN/A
11:00 PM41 °FPartly cloudy.18 mph76%29.21 "HgN/A
10:30 PM41 °FPartly cloudy.16 mph76%29.21 "HgN/A
10:00 PM39 °FPassing clouds.15 mph75%29.21 "HgN/A
9:30 PM41 °FPassing clouds.15 mph70%29.21 "HgN/A
9:00 PM41 °FPassing clouds.13 mph70%29.21 "HgN/A
8:30 PM39 °FPassing clouds.12 mph75%29.21 "HgN/A
8:00 PM39 °FPassing clouds.13 mph75%29.21 "HgN/A
7:30 PM39 °FPassing clouds.13 mph75%29.21 "HgN/A
7:00 PM41 °FPassing clouds.14 mph70%29.18 "HgN/A
6:30 PM39 °FPassing clouds.14 mph75%29.18 "HgN/A
6:00 PM41 °FPassing clouds.15 mph70%29.18 "HgN/A
Weather by CustomWeather, © 2016

See weather overviewHow to use our weather pages